Regional Weather Roundup
Issued by NWS

Home | Current Version | Previous Version | Graphics & Text | Print | Product List | Glossary On
Versions: 1 2 3 4 5 6 7 8 9 10 11 12 13 14 15 16 17 18 19 20 21 22 23 24 25 26 27 28 29 30 31 32 33 34 35 36 37 38 39 40 41 42 43 44 45 46 47 48 49 50
000
ASUS43 KLSX 241207
RWRMO

WEATHER SUMMARY FOR MISSOURI
NATIONAL WEATHER SERVICE SPRINGFIELD MO
700 AM CDT THU MAY 24 2018

NOTE: "FAIR" INDICATES FEW OR NO CLOUDS BELOW 12,000 FEET WITH NO
       SIGNIFICANT WEATHER AND/OR OBSTRUCTIONS TO VISIBILITY.
       CURRENT SKY AND/OR WEATHER CONDITIONS ARE NOT AVAILABLE FOR
       CHILLICOTHE AND FARMINGTON.

MOZ001>031-035>038-043-044-053-054-241300-
...NORTHERN AND WESTERN MISSOURI...

CITY           SKY/WX    TMP DP  RH WIND       PRES   REMARKS
KANSAS CTY INT CLOUDY    67  64  90 SE10      30.10S
6HR MIN TEMP:  64; 6HR MAX TEMP:  71;

KANSAS C DTWN  MOSUNNY   70  63  78 SE6       30.09S
6HR MIN TEMP:  69; 6HR MAX TEMP:  74;

LEE`S SUMMIT   SUNNY     66  66 100 SE8       30.12R
6HR MIN TEMP:  65; 6HR MAX TEMP:  69;

ST JOSEPH      CLOUDY    68  66  93 SE6       30.09S
6HR MIN TEMP:  66; 6HR MAX TEMP:  73;

CHILLICOTHE      N/A     66  65  96 S3        30.13S
6HR MIN TEMP:  63; 6HR MAX TEMP:  73;

KIRKSVILLE     CLOUDY   N/A N/A N/A SE5       30.16R

$$
MOZ066>068-077>081-088>096-101>105-241300-
...SOUTHWEST MISSOURI...

CITY           SKY/WX    TMP DP  RH WIND       PRES   REMARKS
SPRINGFIELD    CLOUDY    68  63  84 SE5       30.14R
6HR MIN TEMP:  66; 6HR MAX TEMP:  68;

JOPLIN         MOCLDY    68  64  87 SE3       30.11S
6HR MIN TEMP:  66; 6HR MAX TEMP:  68;

BRANSON        FOG       64  64 100 E3        30.16R VSB 1/4

$$
MOZ032>034-039>042-045>050-055>058-069>072-241300-
...CENTRAL MISSOURI...

CITY           SKY/WX    TMP DP  RH WIND       PRES   REMARKS
COLUMBIA       SUNNY     68  65  90 SE5       30.14S
6HR MIN TEMP:  66; 6HR MAX TEMP:  72;

JEFFERSON CITY SUNNY     66  65  96 SE5       30.14S FOG
6HR MIN TEMP:  65; 6HR MAX TEMP:  71;

ROLLA          MOSUNNY   67  65  93 CALM      30.17R
6HR MIN TEMP:  64; 6HR MAX TEMP:  67;

SEDALIA        MOSUNNY   69  68  96 S3        30.14R
6HR MIN TEMP:  66; 6HR MAX TEMP:  70;

WHITEMAN AFB   MOSUNNY   66  66  99 CALM      30.09R
WARRENSBURG    SUNNY     64  63  94 E3        30.12F
OSAGE BEACH    PTSUNNY   66  65  96 E3        30.15S

$$
MOZ051-052-059>065-241300-
...EAST CENTRAL MISSOURI...

CITY           SKY/WX    TMP DP  RH WIND       PRES   REMARKS
ST LOUIS INTL  PTSUNNY   70  64  81 E5        30.17R
6HR MIN TEMP:  67; 6HR MAX TEMP:  74;

SPIRIT OF STL  MOSUNNY   66  64  93 CALM      30.16R
6HR MIN TEMP:  62; 6HR MAX TEMP:  68;

ST CHARLES     MOSUNNY   69  66  90 CALM      30.16R
6HR MIN TEMP:  64; 6HR MAX TEMP:  70;


$$
MOZ072>076-082>087-097>100-106>115-241300-
...SOUTH CENTRAL AND SOUTHEAST MISSOURI...

CITY           SKY/WX    TMP DP  RH WIND       PRES   REMARKS
CAPE GIRARDEAU FAIR      68  66  93 CALM      30.14R
6HR MIN TEMP:  63; 6HR MAX TEMP:  70;

FARMINGTON     CLOUDY    63  61  93 CALM      30.18R
6HR MIN TEMP:  61; 6HR MAX TEMP:  66;

POPLAR BLUFF   FAIR      69  67  93 CALM      30.13R
6HR MIN TEMP:  66; 6HR MAX TEMP:  72;

WEST PLAINS    LGT RAIN  68  66  93 CALM      30.18R
6HR MIN TEMP:  65; 6HR MAX TEMP:  68; 6HR PCP: TRACE;


$$



USA.gov is the U.S. government's official web portal to all federal, state and local government web resources and services.